Overview Statistics Trail Chart Weather Telemetry Raw packets
 

This is the latest recevied weather packets stored in our database for station/object K6CEG. If no packets are shown the sender has not sent any weather packets the latest 10 day(s).

<< 38 39 40 41 42 43 44 >>
Time Temp. Humidity Pressure Rain* Wind** Luminosity Snow
1788422108 17.78° C 60% 1017 hPa 0 mm - 0 W/m² -
1788421803 17.78° C 61% 1017 hPa 0 mm - 0 W/m² -
1788421502 18.33° C 61% 1017.1 hPa 0 mm - 0 W/m² -
1788421197 18.33° C 60% 1016.8 hPa 0 mm - 0 W/m² -
1788420892 18.33° C 60% 1017.1 hPa 0 mm - 0 W/m² -
1788420588 18.33° C 59% 1017.1 hPa 0 mm - 0 W/m² -
1788420284 18.33° C 59% 1016.9 hPa 0 mm - 0 W/m² -
1788419980 18.33° C 60% 1017.1 hPa 0 mm - 0 W/m² -
1788419676 18.89° C 60% 1016.9 hPa 0 mm - 0 W/m² -
1788419372 18.89° C 60% 1016.9 hPa 0 mm - 0 W/m² -
1788419071 18.89° C 59% 1017.1 hPa 0 mm - 0 W/m² -
1788418767 19.44° C 59% 1017 hPa 0 mm - 0 W/m² -
1788418466 19.44° C 58% 1016.8 hPa 0 mm - 0 W/m² -
1788418166 19.44° C 58% 1016.9 hPa 0 mm - 0 W/m² -
1788417861 19.44° C 58% 1016.9 hPa 0 mm - 0 W/m² -
1788417557 19.44° C 58% 1016.8 hPa 0 mm - 0 W/m² -
1788417252 19.44° C 58% 1016.8 hPa 0 mm - 0 W/m² -
1788416948 20° C 57% 1016.8 hPa 0 mm - 0 W/m² -
1788416648 20° C 57% 1016.7 hPa 0 mm - 0 W/m² -
1788416343 20° C 57% 1016.8 hPa 0 mm - 0 W/m² -
1788416043 19.44° C 57% 1016.8 hPa 0 mm - 0 W/m² -
1788415739 20° C 57% 1016.9 hPa 0 mm - 0 W/m² -
1788415438 19.44° C 57% 1016.8 hPa 0 mm - 0 W/m² -
1788415136 20° C 56% 1016.7 hPa 0 mm - 0 W/m² -
1788414834 20° C 56% 1016.5 hPa 0 mm - 0 W/m² -

* Rain latest hour (hover to see other rain measurements)
** Current wind speed in m/s (hover to see current wind gust speed)